Kecskemet, Hungary

3:46 AM CEST on August 19, 2017 (GMT +0200)
Kecskemet

Weather History for LHKE - April, 2017

Change the Weather History Date:

Friday, April 21, 2017

  Actual Average (LHBP) Record (LHBP)
Temperature  
Mean Temperature 41 °F -  
Max Temperature 52 °F 61 °F 75 °F (2002)
Min Temperature 30 °F 40 °F 30 °F (1999)
Degree Days  
Heating Degree Days 24    
Moisture  
Dew Point 25 °F    
Average Humidity 49    
Maximum Humidity 75    
Minimum Humidity 20    
Precipitation  
Precipitation 0.00 in - - ()
Sea Level Pressure  
Sea Level Pressure 30.28 in    
Wind  
Wind Speed 10 mph ()    
Max Wind Speed 16 mph    
Max Gust Speed 29 mph    
Visibility 11.4 miles    
Events      
Averages and records for this station are not official NWS values.
T = Trace of Precipitation, MM = Missing Value Source: Averaged Metar Reports

Daily Weather History Graph

Daily Weather History Graph

Search for Another Location

Airport or City:

Trip Planner

Search our weather history database for the weather conditions in past years. The results will help you decide how hot, cold, wet, or windy it might be!

Date:

Astronomy

Apr. 21, 2017 Rise Set
Actual Time 5:42 AM CEST 7:37 PM CEST
Civil Twilight 5:09 AM CEST 8:10 PM CEST
Nautical Twilight 4:30 AM CEST 8:50 PM CEST
Astronomical Twilight 3:46 AM CEST 9:34 PM CEST
Moon 3:14 AM CEST (4/21) 1:37 PM CEST (4/21)
Length of Visible Light 15h 00m
Length of Day
13h 55m
Waning Crescent, 30% of the Moon is Illuminated
Apr 21
Waning Crescent
Apr 26
New
May 3
First Quarter
May 10
Full
May 19
Last Quarter

Hourly Weather History & Observations

Time (CEST) Temp. Windchill Dew Point Humidity Pressure Visibility Wind Dir Wind Speed Gust Speed Precip Events Conditions
12:00 AM 36 °F - 30 °F 70% 30.32 in 12 mi NNW 11.2 mph - -   Partly Cloudy
12:15 AM 37.4 °F 30.8 °F 28.4 °F 70% 30.30 in - NNW 9.2 mph - N/A   Clear
12:45 AM 37.4 °F 29.8 °F 26.6 °F 65% 30.30 in 6.2 mi North 11.5 mph - N/A   Mostly Cloudy
1:00 AM 38 °F - 26 °F 51% 30.32 in 12 mi North 11.2 mph - -   Partly Cloudy
1:11 AM 39.2 °F 30.5 °F 24.8 °F 56% 30.30 in 6.2 mi North 16.1 mph 28.8 mph N/A   Mostly Cloudy
1:15 AM 39.2 °F 31.2 °F 24.8 °F 56% 30.30 in 6.2 mi North 13.8 mph 28.8 mph N/A   Mostly Cloudy
1:45 AM 35.6 °F 27.5 °F 28.4 °F 75% 30.30 in 6.2 mi NNW 11.5 mph - N/A   Mostly Cloudy
2:00 AM 36 °F - 28 °F 63% 30.32 in 12 mi NNW 11.2 mph - -   Partly Cloudy
2:15 AM 35.6 °F 28.6 °F 26.6 °F 70% 30.30 in - NW 9.2 mph - N/A   Clear
2:45 AM 33.8 °F 27.7 °F 26.6 °F 75% 30.30 in - NW 6.9 mph - N/A   Clear
3:00 AM 34 °F - 27 °F 67% 30.33 in 12 mi NW 6.7 mph - -   Mostly Cloudy
3:15 AM 33.8 °F 26.4 °F 26.6 °F 75% 30.27 in - NW 9.2 mph - N/A   Clear
3:45 AM 33.8 °F 25.3 °F 26.6 °F 75% 30.30 in - NW 11.5 mph - N/A   Clear
4:00 AM 34 °F - 26 °F 64% 30.32 in 12 mi NW 11.2 mph - -   Mostly Cloudy
4:15 AM - - - N/A% - - NNW 11.5 mph - N/A   Dust Whirls
4:45 AM 32.0 °F 23.0 °F 24.8 °F 75% 30.27 in - NW 11.5 mph - N/A   Clear
5:00 AM 33 °F - 25 °F 62% 30.32 in 12 mi NW 11.2 mph - -   Mostly Cloudy
5:15 AM 32.0 °F 23.0 °F 24.8 °F 75% 30.30 in - NNW 11.5 mph - N/A   Clear
5:45 AM 32.0 °F 24.2 °F 24.8 °F 75% 30.30 in - NW 9.2 mph - N/A   Clear
6:15 AM 30.2 °F 21.9 °F 23.0 °F 75% 30.30 in - NW 9.2 mph - N/A   Clear
6:45 AM 32.0 °F 24.2 °F 24.8 °F 75% 30.30 in - NW 9.2 mph - N/A   Clear
7:00 AM 32 °F - 25 °F 65% 30.34 in 12 mi NW 8.9 mph - -   Scattered Clouds
7:15 AM - - - N/A% - - NW 11.5 mph - N/A   Dust Whirls
7:45 AM 35.6 °F 26.6 °F 24.8 °F 65% 30.33 in - NW 13.8 mph - N/A   Clear
8:00 AM 36 °F - 24 °F 51% 30.35 in 16 mi NW 13.4 mph - -   Scattered Clouds
8:15 AM 37.4 °F 28.9 °F 23.0 °F 56% 30.33 in - NNW 13.8 mph - N/A   Clear
8:45 AM 39.2 °F 32.0 °F 24.8 °F 56% 30.33 in - NNW 11.5 mph - N/A   Clear
9:00 AM 40 °F - 24 °F 41% 30.35 in 19 mi NNW 11.2 mph - -   Scattered Clouds
9:15 AM 41.0 °F 34.3 °F 23.0 °F 49% 30.33 in - NNW 11.5 mph - N/A   Clear
9:45 AM 42.8 °F 36.6 °F 21.2 °F 42% 30.33 in - North 11.5 mph - N/A   Clear
10:00 AM 43 °F - 22 °F 29% 30.35 in 22 mi North 11.2 mph - -   Clear
10:15 AM - - - N/A% - - North 11.5 mph - N/A   Clear
10:45 AM 44.6 °F 39.7 °F 23.0 °F 43% 30.33 in - NNW 9.2 mph - N/A   Clear
11:00 AM 45 °F - 23 °F 29% 30.35 in 25 mi NNW 8.9 mph - -   Scattered Clouds
11:15 AM 46.4 °F 42.9 °F 24.8 °F 43% 30.33 in - North 6.9 mph - N/A   Clear
11:45 AM 44.6 °F 39.7 °F 19.4 °F 37% 30.30 in - NNW 9.2 mph - N/A   Clear
12:00 PM 45 °F - 20 °F 24% 30.34 in 25 mi NNW 8.9 mph - -   Mostly Cloudy
12:15 PM 46.4 °F 41.9 °F 21.2 °F 37% 30.30 in - WNW 9.2 mph 19.6 mph N/A   Clear
12:45 PM 46.4 °F 41.1 °F 21.2 °F 37% 30.30 in - WNW 11.5 mph - N/A   Clear
1:00 PM 47 °F - 22 °F 24% 30.32 in 25 mi WNW 11.2 mph - -   Mostly Cloudy
1:15 PM - - - N/A% - - NW 9.2 mph - N/A   Dust Whirls
1:45 PM 48.2 °F - 19.4 °F 32% 30.27 in - WNW 11.5 mph - N/A   Clear
2:00 PM 48 °F - 20 °F 20% 30.30 in 25 mi WNW 11.2 mph - -   Partly Cloudy
2:15 PM 50.0 °F - 24.8 °F 37% 30.27 in - WNW 13.8 mph - N/A   Clear
2:45 PM 50.0 °F - 21.2 °F 32% 30.27 in - WNW 13.8 mph - N/A   Clear
3:00 PM 50 °F - 22 °F 21% 30.28 in 25 mi WNW 13.4 mph - -   Scattered Clouds
3:15 PM 51.8 °F - 24.8 °F 35% 30.24 in 6.2 mi WNW 13.8 mph - N/A   Partly Cloudy
3:45 PM 51.8 °F - 23.0 °F 33% 30.24 in - NW 16.1 mph - N/A   Clear
4:15 PM 51.8 °F - 23.0 °F 33% 30.21 in - NW 16.1 mph - N/A   Clear
5:00 PM 52 °F - 24 °F 21% 30.23 in 22 mi WNW 13.4 mph - -   Scattered Clouds
5:00 PM 51.8 °F - 23.0 °F 33% 30.21 in - NW 16.1 mph 26.5 mph N/A   Clear
5:15 PM 51.8 °F - 23.0 °F 33% 30.21 in - NW 16.1 mph - N/A   Clear
5:45 PM 51.8 °F - 23.0 °F 33% 30.21 in - NW 16.1 mph - N/A   Clear
6:00 PM 51 °F - 22 °F 20% 30.23 in 22 mi NW 15.7 mph - -   Scattered Clouds
6:15 PM 50.0 °F - 23.0 °F 35% 30.21 in - NW 13.8 mph - N/A   Clear
6:45 PM 50.0 °F - 24.8 °F 37% 30.21 in - WNW 13.8 mph - N/A   Clear
7:00 PM 49 °F - 24 °F 25% 30.23 in 25 mi WNW 13.4 mph - -   Clear
7:15 PM - - - N/A% - - WNW 11.5 mph - N/A   Clear
8:00 PM 46 °F - 24 °F 28% 30.23 in 25 mi West 8.9 mph - -   Scattered Clouds
8:15 PM 44.6 °F 40.7 °F 24.8 °F 46% 30.21 in - West 6.9 mph - N/A   Clear
8:45 PM 44.6 °F 40.7 °F 24.8 °F 46% 30.21 in - West 6.9 mph - N/A   Clear
9:00 PM 44 °F - 25 °F 35% 30.24 in 19 mi West 6.7 mph - -   Clear
9:15 PM 42.8 °F 38.6 °F 26.6 °F 53% 30.21 in - West 6.9 mph - N/A   Clear
9:45 PM 41.0 °F 38.0 °F 26.6 °F 57% 30.21 in - WSW 4.6 mph - N/A   Clear
10:00 PM 41 °F - 27 °F 45% 30.24 in 12 mi WSW 4.5 mph - -   Clear
10:15 PM 41.0 °F 38.0 °F 26.6 °F 57% 30.21 in - West 4.6 mph - N/A   Clear
10:45 PM 41.0 °F 38.0 °F 28.4 °F 61% 30.21 in - WSW 4.6 mph - N/A   Clear
11:00 PM 41 °F - 28 °F 48% 30.24 in 12 mi WSW 4.5 mph - -   Partly Cloudy
11:15 PM 41.0 °F 36.4 °F 28.4 °F 61% 30.21 in - WSW 6.9 mph - N/A   Clear
11:45 PM 42.8 °F 37.5 °F 28.4 °F 57% 30.21 in - WSW 9.2 mph - N/A   Clear